SCP
0 0 0 0 0 0 0 0 0 0 0 0 0 0 0 0 0 0 0 0 0 -0 -0 -0 -0 0 0 0 0 -0 0 0 0 0 0 0 0 0 0 0 0 0 0 0 0 0 0 0 0
0 0 0 0 0 0 0 0 0 0 0 0 0 0 0 0 0 0 0 0 0 -0 -0 -0 0 0 0 0 0 0 0 0 -0 0 0 0 0 0 0 0 0 -0 -0 0 0 0 0 0 0
0 0 0 0 0 0 0 0 0 0 0 0 0 0 0 0 0 0 0 0 0 0 0 -0 -0 0 0 0 0 0 0 0 0 -0 0 0 0 0 -0 0 0 -0 -0 0 0 0 0 0 0
0 0 0 0 0 0 0 0 0 0 0 0 0 0 0 0 0 0 0 0 0 0 0 -0 -0 0 0 0 0 0 0 0 0 0 0 0 0 0 0 0 0 0 0 0 0 0 0 0 0
0 0 0 0 0 0 0 0 0 0 0 0 0 0 0 0 0 0 0 0 0 0 0 0 -0 -0 -0 -0 0 0 0 0 0 0 0 0 0 0 0 0 0 0 0 0 0 0 0 0 0
0 0 0 0 0 0 0 0 0 0 0 0 0 0 0 0 0 0 0 0 0 0 0 0 0 0 0 0 0 0 0 0 0 0 0 0 0 0 0 0 0 0 0 0 0 0 0 0 0
0 0 0 0 0 0 0 0 0 0 0 0 0 0 0 0 0 0 0 0 0 0 0 0 0 0 0 0 0 0 0 0 0 0 0 0 0 0 0 0 0 0 0 0 0 0 0 0 0
0 0 0 0 0 0 0 0 0 0 0 0 0 0 0 0 0 0 0 0 0 0 0 0 0 0 0 0 0 0 0 0 0 0 0 0 0 0 0 0 0 0 0 0 0 0 0 0 0
0 0 0 0 0 0 0 0 0 0 0 0 0 0 0 0 -0 0 0 0 0 0 0 0 0 0 0 0 0 0 0 0 0 0 0 0 0 0 0 0 0 0 0 0 0 0 0 0 0
0 0 0 0 0 0 0 0 0 0 0 0 0 0 0 0 -0 -0 0 0 0 0 0 0 0 0 0 0 0 0 0 0 0 0 0 0 0 0 0 0 0 0 0 0 0 0 0 0 0
0 0 0 0 0 0 0 0 0 0 0 0 0 0 0 0 -0 -0 -0 -0 0 0 0 0 0 0 0 0 0 0 0 0 0 0 0 0 0 0 0 0 0 0 0 0 0 0 0 0 0
0 0 0 0 0 0 0 0 0 0 0 0 0 0 0 0 0 0 0 0 0 0 0 0 0 0 0 0 0 0 0 0 0 0 0 0 0 0 0 0 0 0 0 0 0 0 0 0 0
0 0 0 0 0 0 0 0 0 0 0 0 0 0 0 0 0 0 0 0 0 0 0 0 0 0 0 0 0 0 0 0 0 0 0 0 0 0 0 0 0 0 0 0 0 0 0 0 0
0 0 0 0 0 0 0 0 0 0 0 0 0 0 0 0 0 0 0 0 0 0 0 0 0 0 0 0 0 0 0 0 0 0 0 0 0 0 0 0 0 0 0 0 0 0 0 0 0
0 0 0 0 0 0 0 0 0 0 0 0 0 0 0 0 0 0 0 0 0 0 0 0 0 0 0 0 0 0 0 0 0 0 0 0 0 0 0 0 0 0 0 0 0 0 0 0 0
0 0 0 0 0 0 0 0 0 0 0 0 0 0 0 0 0 -0 -0 -0 -0 0 0 0 0 0 0 0 0 0 0 0 0 0 0 0 0 0 0 0 0 0 0 0 0 0 0 0 0
0 0 0 0 0 0 0 0 0 0 0 0 0 0 0 0 0 0 0 -0 -0 -0 0 0 0 0 0 0 0 0 0 0 0 0 0 0 0 0 0 0 0 0 0 0 0 0 0 0 0
0 0 0 0 0 0 0 0 0 0 0 0 0 0 0 0 -0 -0 -0 -0 -0 -0 -0 0 0 0 0 0 0 0 0 0 0 0 0 0 0 0 0 0 0 0 0 0 0 0 0 0 0
0 0 0 0 0 0 0 0 0 0 0 0 0 0 0 0 0 -0 -0 -0 -0 -0 -0 -0 -0 0 0 0 0 0 0 0 0 0 0 0 0 0 0 0 0 0 0 0 0 0 0 0 0
0 0 0 0 0 0 0 0 -0 0 0 0 0 0 0 0 0 0 0 -0 -0 -0 -0 -0 -0 -0 -0 -0 -0 -0 0 0 0 0 0 0 0 0 0 0 0 0 0 0 0 0 0 0 0
0 0 0 0 0 0 0 0 0 0 0 0 0 0 0 0 0 0 0 0 0 -0 -0 -0 -0 -0 -0 -0 -0 -0 -0 -0 0 0 0 0 0 0 0 0 0 0 0 0 0 -0 -0 0 0
0 0 0 0 0 0 0 0 0 0 0 0 0 0 0 0 0 0 0 0 0 0 0 -0 -0 -0 -0 -0 -0 -0 -0 -0 -0 0 0 0 0 0 0 0 0 0 0 0 0 -0 -0 -0 0
0 0 0 0 0 0 0 0 0 0 0 0 0 0 0 0 0 0 0 0 0 0 0 0 0 -0 -0 -0 -0 -0 -0 -0 -0 -0 0 0 0 0 0 0 0 0 0 0 0 0 0 -0 -0
0 0 0 0 0 0 0 0 0 0 0 0 0 0 0 0 0 0 0 0 0 0 0 0 0 0 -0 -0 -0 -0 -0 -0 -0 -0 -0 -0 -0 -0 0 0 0 0 0 0 0 0 0 0 -0
0 0 0 0 0 0 0 0 0 0 0 0 0 0 0 0 0 0 0 0 0 0 0 0 0 0 0 0 -0 -0 -0 -0 -0 -0 -0 -0 -0 -0 -0 -0 0 0 -0 0 0 0 0 0 0
0 0 0 0 0 0 0 0 0 0 0 0 0 0 0 0 0 0 0 0 0 0 0 0 0 0 0 0 0 0 -0 -0 0 0 0 -0 -0 -0 -0 -0 -0 -0 0 -0 -0 -0 0 0 0
0 0 0 0 0 0 0 0 0 0 0 0 0 0 0 0 0 0 0 0 0 0 0 0 0 0 0 0 0 0 0 0 0 0 0 0 0 0 0 -0 -0 -0 -0 -0 -0 -0 -0 0 0
0 0 0 0 0 0 0 0 0 0 0 0 0 0 0 0 0 0 0 0 0 0 0 0 0 0 0 0 0 0 0 0 0 0 0 0 0 0 0 0 0 0 -0 -0 -0 -0 -0 0 0
0 0 0 0 0 0 0 0 0 0 0 0 0 0 0 0 0 0 0 0 0 0 0 0 0 0 0 0 0 0 0 0 0 0 0 0 0 0 0 0 0 -0 -0 -0 -0 0 0 0 0
0 0 0 0 0 0 0 0 0 0 0 0 0 0 0 0 0 0 0 0 0 0 0 0 0 0 0 0 0 0 0 0 0 0 0 0 0 0 0 0 0 0 0 -0 -0 -0 0 0 0
Wind_Speed_500mb
14 16 20 10 5 8 7 4 5 10 11 18 14 40 44 60 19 13 36 50 43 38 41 40 43 6 1 2 2 13 11 9 9 10 10 9 8 8 10 12 15 18 20 18 17 17 16 14 5
14 11 9 6 6 6 5 10 20 12 17 18 14 55 57 27 42 44 51 53 38 39 43 40 39 34 7 6 9 9 14 12 11 12 13 13 13 13 13 14 18 21 21 20 19 18 17 16 12
11 13 6 2 4 6 5 9 12 8 22 12 17 50 26 46 48 35 55 41 38 46 49 41 38 27 21 6 12 14 15 18 17 16 17 17 18 17 14 16 19 23 23 23 20 20 21 19 19
4 1 7 5 5 9 8 8 18 4 28 27 54 29 30 56 28 58 38 29 36 33 22 25 27 29 35 17 12 18 21 20 22 23 23 22 21 22 20 21 23 25 27 27 26 26 27 26 26
4 4 0 5 2 5 6 15 29 32 17 50 42 13 18 48 38 39 34 25 27 28 22 19 16 13 13 20 5 19 23 28 24 27 29 29 28 29 26 24 26 27 31 33 34 35 35 35 34
3 4 3 7 4 8 8 18 38 33 44 42 35 20 20 32 32 35 26 25 22 14 14 13 15 15 11 6 14 4 25 30 32 30 31 33 34 34 34 33 32 32 33 36 36 37 38 39 34
4 5 7 5 8 11 8 8 25 30 33 38 16 9 4 48 46 30 25 23 22 21 16 15 14 12 11 9 2 6 10 17 34 37 35 36 37 37 38 38 39 39 38 39 41 40 39 38 33
2 3 4 2 3 3 22 9 11 35 33 1 18 15 15 49 44 38 29 25 26 26 27 25 21 20 19 14 13 12 13 15 21 34 41 40 40 42 43 43 44 44 45 45 45 45 41 36 35
2 5 2 10 7 7 25 11 28 29 37 57 29 35 25 33 41 38 39 39 36 35 36 33 30 24 22 21 20 16 15 17 13 15 36 42 47 47 48 49 48 47 47 47 48 48 47 44 37
6 6 6 7 5 7 34 20 16 15 23 23 40 34 29 35 43 50 48 51 52 48 44 44 39 35 30 25 22 23 18 16 19 19 13 36 47 53 52 56 53 52 51 51 51 51 50 52 51
7 6 12 15 13 14 17 33 15 6 17 25 30 33 34 39 44 49 50 50 50 49 46 45 43 41 38 32 29 25 25 26 24 23 25 25 34 46 52 53 56 56 56 57 57 57 59 63 64
12 26 19 7 17 7 7 15 27 37 15 16 19 22 31 41 47 51 53 55 56 57 56 48 46 46 42 39 34 32 30 28 30 20 28 32 31 37 51 56 59 61 60 61 62 64 67 68 71
19 22 35 25 17 30 28 32 23 28 19 15 17 25 33 37 41 45 49 52 57 61 61 64 58 49 46 44 39 35 33 31 30 31 26 33 36 39 39 55 65 67 67 65 67 68 75 72 74
26 41 23 27 23 18 26 13 10 14 19 17 19 24 29 35 39 43 50 53 57 59 62 62 64 63 54 45 43 40 37 35 34 34 31 36 43 36 45 41 52 70 72 76 73 71 73 82 83
24 12 10 27 17 6 5 11 7 9 20 21 16 20 25 31 38 46 47 50 53 55 58 62 63 64 62 57 49 44 42 40 37 35 35 35 43 52 47 46 45 44 64 83 84 81 74 76 85
7 8 6 6 16 1 4 6 8 9 21 20 19 17 20 27 34 40 45 46 45 48 53 56 60 62 63 62 57 51 46 42 40 39 38 40 39 47 59 56 46 50 40 66 80 96 84 80 82
1 5 7 1 10 5 7 7 17 13 17 16 16 16 16 19 25 33 39 40 40 42 46 50 56 60 62 61 60 58 52 47 43 41 41 43 44 46 48 60 61 53 59 48 65 75 100 87 81
11 9 7 7 6 9 10 9 16 16 17 14 9 9 14 17 22 25 30 36 39 40 41 44 49 54 60 62 62 61 60 56 52 48 46 45 45 49 52 52 60 66 59 48 47 57 85 88 88
7 9 11 6 2 3 6 10 16 29 15 13 5 6 11 15 18 23 29 35 40 45 47 51 53 54 55 59 65 66 69 65 59 57 54 52 50 49 52 53 56 60 69 66 60 45 50 87 100
12 13 5 2 6 2 1 13 14 30 24 20 12 6 2 11 18 23 30 36 43 47 49 51 54 57 60 62 62 62 65 67 67 61 61 60 57 55 54 55 56 58 67 73 73 72 61 46 96
10 10 2 2 7 5 3 9 10 16 29 29 18 13 2 12 17 20 26 32 36 44 49 51 53 55 57 60 61 63 64 66 69 74 71 66 65 62 59 58 58 57 60 67 76 78 80 78 54
7 1 2 2 6 2 5 7 9 14 16 23 28 20 10 11 14 17 22 26 32 36 39 42 47 52 56 60 62 66 69 72 73 74 73 73 67 66 68 65 63 60 60 62 65 78 83 87 90
8 5 5 3 3 5 5 6 14 18 16 20 36 30 18 13 13 16 22 26 29 31 36 39 41 45 49 52 57 61 64 66 67 70 72 75 75 71 70 74 74 70 66 66 65 70 75 83 87
8 8 6 5 5 4 10 10 9 13 23 10 36 36 23 14 11 15 21 25 29 29 31 33 37 41 45 48 52 55 58 61 66 71 76 78 79 80 77 73 76 78 77 75 74 70 72 78 87
7 8 6 7 6 8 3 2 18 16 10 23 40 42 27 17 12 15 21 26 30 32 33 33 35 38 42 45 48 51 53 54 58 63 68 72 77 81 83 82 76 78 80 79 78 78 76 76 80
5 10 9 13 6 4 5 12 12 9 17 34 43 34 25 18 17 17 23 28 35 37 35 35 35 38 41 43 44 47 49 50 52 54 57 61 66 71 75 79 80 75 77 81 80 79 77 78 80
4 3 7 12 5 7 8 14 11 8 7 19 27 28 27 22 23 21 22 28 35 39 37 36 34 37 40 42 44 46 48 48 49 50 53 56 59 64 69 73 77 81 77 78 82 83 81 75 77
6 7 7 5 4 7 8 10 12 14 19 16 24 37 30 25 26 24 28 32 37 40 39 38 37 37 39 41 45 47 48 48 48 48 50 53 57 62 66 70 74 77 81 80 80 85 82 80 75
2 1 4 5 8 10 4 12 12 15 24 25 36 42 33 30 34 28 32 33 37 40 40 41 41 41 40 42 46 49 49 48 47 48 49 52 55 60 64 68 72 75 78 82 81 81 86 85 80
6 11 9 8 10 6 4 14 8 8 15 36 32 37 37 35 34 34 33 31 34 35 36 43 46 45 44 44 48 51 51 49 47 49 52 54 56 59 63 66 68 71 73 76 81 80 84 91 86
Wind_Direction_500mb
329 341 322 337 35 82 283 341 96 55 45 27 38 88 81 49 50 71 23 28 10 16 21 13 16 47 284 338 204 194 201 214 234 241 242 241 231 227 227 222 226 232 225 221 210 212 219 205 264
329 342 347 332 80 29 342 1 85 99 94 72 83 78 47 55 52 34 31 24 26 21 24 24 19 23 346 313 297 258 217 225 238 252 262 261 254 252 245 234 226 232 228 228 227 225 211 226 271
333 337 327 94 123 131 54 347 335 108 96 79 105 65 46 329 28 18 21 53 61 62 49 39 35 28 18 289 281 281 261 230 233 243 264 270 267 258 247 249 234 237 233 230 232 227 231 241 265
277 355 305 53 277 7 348 291 358 314 67 46 88 77 75 51 35 25 42 55 68 58 54 79 72 49 20 345 270 271 276 267 241 244 247 257 265 274 266 243 242 234 239 239 241 246 250 250 266
141 224 316 247 182 130 34 318 5 38 70 54 102 103 89 27 32 38 40 38 58 66 59 46 39 49 55 66 309 270 267 279 266 251 253 254 256 259 260 252 250 245 239 243 246 249 253 255 263
219 205 149 224 142 161 70 22 61 51 46 32 85 98 81 9 23 22 18 23 24 38 39 17 23 22 18 42 80 236 273 267 271 261 257 259 261 259 259 258 253 249 247 247 248 249 251 258 255
166 116 214 254 111 57 7 350 47 63 41 14 64 64 161 1 357 354 348 336 340 339 323 325 318 319 327 342 261 250 255 272 277 274 265 257 255 260 260 257 258 257 251 249 248 249 255 259 242
255 133 213 18 130 182 358 86 72 40 45 112 53 32 360 357 340 336 332 326 328 329 329 326 327 308 299 289 286 277 254 264 287 279 277 272 261 252 250 256 257 255 254 250 247 247 246 247 238
149 79 169 25 46 110 21 64 51 70 86 59 66 46 10 334 334 337 341 344 344 345 341 337 333 329 320 313 279 275 262 253 259 285 283 272 270 264 257 253 253 258 258 252 248 243 240 238 235
80 102 113 3 17 60 57 63 41 52 59 45 26 26 9 352 351 356 358 354 354 350 344 339 333 325 320 318 317 282 274 274 262 271 266 284 279 276 273 265 257 255 254 255 248 240 238 241 243
49 106 144 47 47 71 96 60 58 88 44 34 25 21 3 5 13 17 18 16 9 0 350 346 337 330 323 316 310 308 285 273 269 263 268 267 282 280 275 272 264 261 256 250 246 239 235 239 241
106 58 100 102 45 52 57 87 69 75 91 37 37 15 10 23 27 26 24 20 20 17 12 3 351 341 331 323 316 308 302 292 275 276 267 273 272 276 280 272 269 267 262 256 250 243 237 237 239
90 113 77 110 78 44 92 101 103 91 80 59 43 30 27 27 26 23 23 20 17 17 17 15 12 1 346 336 323 314 305 296 294 282 272 272 271 270 269 277 271 265 265 262 256 250 245 240 242
97 95 93 72 78 62 112 85 100 82 101 76 52 48 30 23 16 14 15 14 14 13 15 16 16 13 5 352 343 331 317 306 297 292 286 266 271 281 270 273 277 270 266 263 261 255 252 248 244
120 92 63 29 8 81 69 44 95 90 113 100 61 42 32 18 6 5 3 6 6 8 10 14 16 16 16 10 358 348 339 323 312 303 294 291 269 264 283 274 268 276 276 259 263 257 253 250 250
102 91 138 19 20 46 70 170 180 119 122 109 97 73 36 17 7 356 353 356 359 4 8 11 13 13 17 17 13 3 353 345 330 318 309 299 292 273 261 278 277 270 278 274 260 250 248 249 254
252 192 135 266 20 320 166 147 183 162 132 120 106 86 58 37 12 356 352 5 6 6 7 9 11 11 12 14 17 16 9 358 349 338 325 315 308 303 289 271 274 279 266 274 275 268 244 240 247
180 152 98 157 314 1 81 149 174 177 152 137 108 84 70 48 25 2 1 4 14 15 14 14 13 11 11 10 10 16 18 13 5 356 345 332 322 312 308 294 278 274 278 268 274 274 267 270 257
96 95 113 124 227 39 191 177 194 180 178 153 153 86 65 29 7 7 8 11 19 23 21 19 17 17 14 12 9 8 11 14 12 7 0 351 340 328 317 311 299 287 280 277 275 287 287 259 260
47 112 58 65 165 169 237 259 234 188 190 186 193 165 91 352 4 8 10 12 16 17 21 22 21 19 18 17 16 14 12 11 14 12 7 2 356 345 336 327 316 306 294 278 276 283 287 301 252
42 102 103 201 318 226 309 287 194 203 184 197 204 176 227 332 348 355 5 11 13 13 14 15 17 18 19 17 14 12 12 12 8 8 11 8 1 358 350 340 330 319 308 299 288 288 287 281 314
112 324 130 39 44 186 109 258 248 192 197 199 209 195 223 293 325 337 349 0 7 10 8 9 11 12 14 14 15 15 15 12 10 8 5 7 6 358 354 351 344 334 324 309 297 286 285 290 278
151 153 114 53 50 38 219 103 265 157 214 217 212 194 214 268 306 323 332 342 351 359 3 3 4 5 8 9 10 10 11 10 7 6 5 4 5 5 359 353 351 347 337 327 315 297 288 283 288
130 109 71 53 64 15 218 157 259 186 212 182 193 188 202 240 278 303 318 328 335 345 353 357 359 359 0 2 4 4 5 4 3 4 4 3 2 2 3 358 352 350 346 338 327 313 299 291 290
61 86 24 5 6 224 70 64 247 223 201 172 173 180 196 217 246 277 309 318 327 333 340 347 352 355 355 356 357 359 359 0 1 2 1 0 359 0 360 357 357 351 347 344 337 326 316 298 291
129 149 156 194 200 233 334 235 257 223 125 170 178 179 197 214 230 280 313 317 321 326 328 334 341 349 351 351 351 351 352 355 357 357 357 359 358 357 357 357 355 353 349 344 341 336 327 316 296
232 182 169 99 54 51 225 287 316 77 110 151 172 190 209 218 236 282 309 309 309 317 320 323 330 340 344 345 346 344 345 347 350 351 351 352 353 354 353 354 354 353 352 347 343 341 335 325 311
140 185 83 2 122 260 274 276 238 209 211 201 203 210 221 231 245 273 297 308 314 315 320 318 321 326 334 339 340 339 337 339 342 344 346 347 348 348 348 349 350 350 351 350 347 343 340 334 324
109 145 36 119 152 180 243 255 217 213 201 200 212 217 229 236 237 271 293 297 309 310 314 318 317 314 320 327 333 333 331 331 334 337 340 342 343 343 343 344 344 346 347 349 348 346 344 339 335
164 197 158 132 237 233 149 271 267 175 191 195 210 224 237 230 254 279 283 287 300 307 312 319 317 308 310 317 325 326 325 324 326 330 333 337 339 340 338 338 338 340 342 343 345 348 347 344 340
Wind_Speed_850mb
14 16 20 10 5 8 7 4 5 10 11 18 14 40 44 60 19 13 36 50 43 38 41 40 43 6 1 2 2 13 11 9 9 10 10 9 8 8 10 12 15 18 20 18 17 17 16 14 5
14 11 9 6 6 6 5 10 20 12 17 18 14 55 57 27 42 44 51 53 38 39 43 40 39 34 7 6 9 9 14 12 11 12 13 13 13 13 13 14 18 21 21 20 19 18 17 16 12
11 13 6 2 4 6 5 9 12 8 22 12 17 50 26 46 48 35 55 41 38 46 49 41 38 27 21 6 12 14 15 18 17 16 17 17 18 17 14 16 19 23 23 23 20 20 21 19 19
4 1 7 5 5 9 8 8 18 4 28 27 54 29 30 56 28 58 38 29 36 33 22 25 27 29 35 17 12 18 21 20 22 23 23 22 21 22 20 21 23 25 27 27 26 26 27 26 26
4 4 0 5 2 5 6 15 29 32 17 50 42 13 18 48 38 39 34 25 27 28 22 19 16 13 13 20 5 19 23 28 24 27 29 29 28 29 26 24 26 27 31 33 34 35 35 35 34
3 4 3 7 4 8 8 18 38 33 44 42 35 20 20 32 32 35 26 25 22 14 14 13 15 15 11 6 14 4 25 30 32 30 31 33 34 34 34 33 32 32 33 36 36 37 38 39 34
4 5 7 5 8 11 8 8 25 30 33 38 16 9 4 48 46 30 25 23 22 21 16 15 14 12 11 9 2 6 10 17 34 37 35 36 37 37 38 38 39 39 38 39 41 40 39 38 33
2 3 4 2 3 3 22 9 11 35 33 1 18 15 15 49 44 38 29 25 26 26 27 25 21 20 19 14 13 12 13 15 21 34 41 40 40 42 43 43 44 44 45 45 45 45 41 36 35
2 5 2 10 7 7 25 11 28 29 37 57 29 35 25 33 41 38 39 39 36 35 36 33 30 24 22 21 20 16 15 17 13 15 36 42 47 47 48 49 48 47 47 47 48 48 47 44 37
6 6 6 7 5 7 34 20 16 15 23 23 40 34 29 35 43 50 48 51 52 48 44 44 39 35 30 25 22 23 18 16 19 19 13 36 47 53 52 56 53 52 51 51 51 51 50 52 51
7 6 12 15 13 14 17 33 15 6 17 25 30 33 34 39 44 49 50 50 50 49 46 45 43 41 38 32 29 25 25 26 24 23 25 25 34 46 52 53 56 56 56 57 57 57 59 63 64
12 26 19 7 17 7 7 15 27 37 15 16 19 22 31 41 47 51 53 55 56 57 56 48 46 46 42 39 34 32 30 28 30 20 28 32 31 37 51 56 59 61 60 61 62 64 67 68 71
19 22 35 25 17 30 28 32 23 28 19 15 17 25 33 37 41 45 49 52 57 61 61 64 58 49 46 44 39 35 33 31 30 31 26 33 36 39 39 55 65 67 67 65 67 68 75 72 74
26 41 23 27 23 18 26 13 10 14 19 17 19 24 29 35 39 43 50 53 57 59 62 62 64 63 54 45 43 40 37 35 34 34 31 36 43 36 45 41 52 70 72 76 73 71 73 82 83
24 12 10 27 17 6 5 11 7 9 20 21 16 20 25 31 38 46 47 50 53 55 58 62 63 64 62 57 49 44 42 40 37 35 35 35 43 52 47 46 45 44 64 83 84 81 74 76 85
7 8 6 6 16 1 4 6 8 9 21 20 19 17 20 27 34 40 45 46 45 48 53 56 60 62 63 62 57 51 46 42 40 39 38 40 39 47 59 56 46 50 40 66 80 96 84 80 82
1 5 7 1 10 5 7 7 17 13 17 16 16 16 16 19 25 33 39 40 40 42 46 50 56 60 62 61 60 58 52 47 43 41 41 43 44 46 48 60 61 53 59 48 65 75 100 87 81
11 9 7 7 6 9 10 9 16 16 17 14 9 9 14 17 22 25 30 36 39 40 41 44 49 54 60 62 62 61 60 56 52 48 46 45 45 49 52 52 60 66 59 48 47 57 85 88 88
7 9 11 6 2 3 6 10 16 29 15 13 5 6 11 15 18 23 29 35 40 45 47 51 53 54 55 59 65 66 69 65 59 57 54 52 50 49 52 53 56 60 69 66 60 45 50 87 100
12 13 5 2 6 2 1 13 14 30 24 20 12 6 2 11 18 23 30 36 43 47 49 51 54 57 60 62 62 62 65 67 67 61 61 60 57 55 54 55 56 58 67 73 73 72 61 46 96
10 10 2 2 7 5 3 9 10 16 29 29 18 13 2 12 17 20 26 32 36 44 49 51 53 55 57 60 61 63 64 66 69 74 71 66 65 62 59 58 58 57 60 67 76 78 80 78 54
7 1 2 2 6 2 5 7 9 14 16 23 28 20 10 11 14 17 22 26 32 36 39 42 47 52 56 60 62 66 69 72 73 74 73 73 67 66 68 65 63 60 60 62 65 78 83 87 90
8 5 5 3 3 5 5 6 14 18 16 20 36 30 18 13 13 16 22 26 29 31 36 39 41 45 49 52 57 61 64 66 67 70 72 75 75 71 70 74 74 70 66 66 65 70 75 83 87
8 8 6 5 5 4 10 10 9 13 23 10 36 36 23 14 11 15 21 25 29 29 31 33 37 41 45 48 52 55 58 61 66 71 76 78 79 80 77 73 76 78 77 75 74 70 72 78 87
7 8 6 7 6 8 3 2 18 16 10 23 40 42 27 17 12 15 21 26 30 32 33 33 35 38 42 45 48 51 53 54 58 63 68 72 77 81 83 82 76 78 80 79 78 78 76 76 80
5 10 9 13 6 4 5 12 12 9 17 34 43 34 25 18 17 17 23 28 35 37 35 35 35 38 41 43 44 47 49 50 52 54 57 61 66 71 75 79 80 75 77 81 80 79 77 78 80
4 3 7 12 5 7 8 14 11 8 7 19 27 28 27 22 23 21 22 28 35 39 37 36 34 37 40 42 44 46 48 48 49 50 53 56 59 64 69 73 77 81 77 78 82 83 81 75 77
6 7 7 5 4 7 8 10 12 14 19 16 24 37 30 25 26 24 28 32 37 40 39 38 37 37 39 41 45 47 48 48 48 48 50 53 57 62 66 70 74 77 81 80 80 85 82 80 75
2 1 4 5 8 10 4 12 12 15 24 25 36 42 33 30 34 28 32 33 37 40 40 41 41 41 40 42 46 49 49 48 47 48 49 52 55 60 64 68 72 75 78 82 81 81 86 85 80
6 11 9 8 10 6 4 14 8 8 15 36 32 37 37 35 34 34 33 31 34 35 36 43 46 45 44 44 48 51 51 49 47 49 52 54 56 59 63 66 68 71 73 76 81 80 84 91 86
Wind_Direction_850mb
329 341 322 337 35 82 283 341 96 55 45 27 38 88 81 49 50 71 23 28 10 16 21 13 16 47 284 338 204 194 201 214 234 241 242 241 231 227 227 222 226 232 225 221 210 212 219 205 264
329 342 347 332 80 29 342 1 85 99 94 72 83 78 47 55 52 34 31 24 26 21 24 24 19 23 346 313 297 258 217 225 238 252 262 261 254 252 245 234 226 232 228 228 227 225 211 226 271
333 337 327 94 123 131 54 347 335 108 96 79 105 65 46 329 28 18 21 53 61 62 49 39 35 28 18 289 281 281 261 230 233 243 264 270 267 258 247 249 234 237 233 230 232 227 231 241 265
277 355 305 53 277 7 348 291 358 314 67 46 88 77 75 51 35 25 42 55 68 58 54 79 72 49 20 345 270 271 276 267 241 244 247 257 265 274 266 243 242 234 239 239 241 246 250 250 266
141 224 316 247 182 130 34 318 5 38 70 54 102 103 89 27 32 38 40 38 58 66 59 46 39 49 55 66 309 270 267 279 266 251 253 254 256 259 260 252 250 245 239 243 246 249 253 255 263
219 205 149 224 142 161 70 22 61 51 46 32 85 98 81 9 23 22 18 23 24 38 39 17 23 22 18 42 80 236 273 267 271 261 257 259 261 259 259 258 253 249 247 247 248 249 251 258 255
166 116 214 254 111 57 7 350 47 63 41 14 64 64 161 1 357 354 348 336 340 339 323 325 318 319 327 342 261 250 255 272 277 274 265 257 255 260 260 257 258 257 251 249 248 249 255 259 242
255 133 213 18 130 182 358 86 72 40 45 112 53 32 360 357 340 336 332 326 328 329 329 326 327 308 299 289 286 277 254 264 287 279 277 272 261 252 250 256 257 255 254 250 247 247 246 247 238
149 79 169 25 46 110 21 64 51 70 86 59 66 46 10 334 334 337 341 344 344 345 341 337 333 329 320 313 279 275 262 253 259 285 283 272 270 264 257 253 253 258 258 252 248 243 240 238 235
80 102 113 3 17 60 57 63 41 52 59 45 26 26 9 352 351 356 358 354 354 350 344 339 333 325 320 318 317 282 274 274 262 271 266 284 279 276 273 265 257 255 254 255 248 240 238 241 243
49 106 144 47 47 71 96 60 58 88 44 34 25 21 3 5 13 17 18 16 9 0 350 346 337 330 323 316 310 308 285 273 269 263 268 267 282 280 275 272 264 261 256 250 246 239 235 239 241
106 58 100 102 45 52 57 87 69 75 91 37 37 15 10 23 27 26 24 20 20 17 12 3 351 341 331 323 316 308 302 292 275 276 267 273 272 276 280 272 269 267 262 256 250 243 237 237 239
90 113 77 110 78 44 92 101 103 91 80 59 43 30 27 27 26 23 23 20 17 17 17 15 12 1 346 336 323 314 305 296 294 282 272 272 271 270 269 277 271 265 265 262 256 250 245 240 242
97 95 93 72 78 62 112 85 100 82 101 76 52 48 30 23 16 14 15 14 14 13 15 16 16 13 5 352 343 331 317 306 297 292 286 266 271 281 270 273 277 270 266 263 261 255 252 248 244
120 92 63 29 8 81 69 44 95 90 113 100 61 42 32 18 6 5 3 6 6 8 10 14 16 16 16 10 358 348 339 323 312 303 294 291 269 264 283 274 268 276 276 259 263 257 253 250 250
102 91 138 19 20 46 70 170 180 119 122 109 97 73 36 17 7 356 353 356 359 4 8 11 13 13 17 17 13 3 353 345 330 318 309 299 292 273 261 278 277 270 278 274 260 250 248 249 254
252 192 135 266 20 320 166 147 183 162 132 120 106 86 58 37 12 356 352 5 6 6 7 9 11 11 12 14 17 16 9 358 349 338 325 315 308 303 289 271 274 279 266 274 275 268 244 240 247
180 152 98 157 314 1 81 149 174 177 152 137 108 84 70 48 25 2 1 4 14 15 14 14 13 11 11 10 10 16 18 13 5 356 345 332 322 312 308 294 278 274 278 268 274 274 267 270 257
96 95 113 124 227 39 191 177 194 180 178 153 153 86 65 29 7 7 8 11 19 23 21 19 17 17 14 12 9 8 11 14 12 7 0 351 340 328 317 311 299 287 280 277 275 287 287 259 260
47 112 58 65 165 169 237 259 234 188 190 186 193 165 91 352 4 8 10 12 16 17 21 22 21 19 18 17 16 14 12 11 14 12 7 2 356 345 336 327 316 306 294 278 276 283 287 301 252
42 102 103 201 318 226 309 287 194 203 184 197 204 176 227 332 348 355 5 11 13 13 14 15 17 18 19 17 14 12 12 12 8 8 11 8 1 358 350 340 330 319 308 299 288 288 287 281 314
112 324 130 39 44 186 109 258 248 192 197 199 209 195 223 293 325 337 349 0 7 10 8 9 11 12 14 14 15 15 15 12 10 8 5 7 6 358 354 351 344 334 324 309 297 286 285 290 278
151 153 114 53 50 38 219 103 265 157 214 217 212 194 214 268 306 323 332 342 351 359 3 3 4 5 8 9 10 10 11 10 7 6 5 4 5 5 359 353 351 347 337 327 315 297 288 283 288
130 109 71 53 64 15 218 157 259 186 212 182 193 188 202 240 278 303 318 328 335 345 353 357 359 359 0 2 4 4 5 4 3 4 4 3 2 2 3 358 352 350 346 338 327 313 299 291 290
61 86 24 5 6 224 70 64 247 223 201 172 173 180 196 217 246 277 309 318 327 333 340 347 352 355 355 356 357 359 359 0 1 2 1 0 359 0 360 357 357 351 347 344 337 326 316 298 291
129 149 156 194 200 233 334 235 257 223 125 170 178 179 197 214 230 280 313 317 321 326 328 334 341 349 351 351 351 351 352 355 357 357 357 359 358 357 357 357 355 353 349 344 341 336 327 316 296
232 182 169 99 54 51 225 287 316 77 110 151 172 190 209 218 236 282 309 309 309 317 320 323 330 340 344 345 346 344 345 347 350 351 351 352 353 354 353 354 354 353 352 347 343 341 335 325 311
140 185 83 2 122 260 274 276 238 209 211 201 203 210 221 231 245 273 297 308 314 315 320 318 321 326 334 339 340 339 337 339 342 344 346 347 348 348 348 349 350 350 351 350 347 343 340 334 324
109 145 36 119 152 180 243 255 217 213 201 200 212 217 229 236 237 271 293 297 309 310 314 318 317 314 320 327 333 333 331 331 334 337 340 342 343 343 343 344 344 346 347 349 348 346 344 339 335
164 197 158 132 237 233 149 271 267 175 191 195 210 224 237 230 254 279 283 287 300 307 312 319 317 308 310 317 325 326 325 324 326 330 333 337 339 340 338 338 338 340 342 343 345 348 347 344 340